Check out our new BloomSky Weather System.

Active alerts


No alerts


Thunder radar  blitzortung!


Rain radar more information rain snow radar


Visit our other weather sites:

Template documentation
and downloads

And another site



Weather Underground History page Text

Daily Summary for April 30, 2017 Units:  Metric    English   Both
« Previous Day
Next Day »
Daily Weekly Monthly Yearly Custom
  High: Low: Average:
Temperature: 24.1 °C 13.5 °C 18.2 °C
Dew Point: 16.8 °C 6 °C 10.4 °C
Humidity: 92 % 32 % 63 %
Wind Speed: 17.7 km/h 0 km/h 4.2 km/h
Wind Gust: 32.2 km/h - -
Wind:- - WNW
Pressure: 1014.1 hPa 1007.7 hPa -
Precipitation: 0.76 mm    
Historical Graphs
 
 
Tabular Data for April 30, 2017
Time Temperature Dew Point Pressure Wind Wind Speed Wind Gust Humidity Rainfall Rate (Hourly)
00:01 19 °C 16.8 °C 1008.7 hPa NW 14.5 km/h 30.6 km/h 87 % 0 mm
00:06 18.2 °C 16.4 °C 1008.7 hPa NNW 4.8 km/h 30.6 km/h 89 % 0.51 mm
00:11 17.6 °C 16.1 °C 1008.4 hPa NW 6.4 km/h 30.6 km/h 91 % 0.51 mm
00:16 17.3 °C 16 °C 1008.7 hPa NNW 11.3 km/h 24.1 km/h 92 % 0.51 mm
00:21 17.1 °C 15.8 °C 1008.7 hPa NW 4.8 km/h 32.2 km/h 92 % 0.51 mm
00:26 17 °C 15.7 °C 1008.7 hPa NNW 6.4 km/h 32.2 km/h 92 % 0.51 mm
00:31 16.9 °C 15.6 °C 1008.7 hPa NNW 3.2 km/h 32.2 km/h 92 % 0.76 mm
00:36 16.7 °C 15.4 °C 1008.7 hPa WSW 6.4 km/h 24.1 km/h 92 % 0.76 mm
00:41 16.7 °C 15.4 °C 1008.7 hPa NNW 8 km/h 24.1 km/h 92 % 0.76 mm
00:46 16.7 °C 15.2 °C 1008.7 hPa North 12.9 km/h 24.1 km/h 91 % 0.76 mm
00:51 16.7 °C 15.2 °C 1008.7 hPa NW 17.7 km/h 24.1 km/h 91 % 0.76 mm
00:56 16.7 °C 15.1 °C 1008.7 hPa NNW 6.4 km/h 24.1 km/h 90 % 0.76 mm
00:58 16.7 °C 15.1 °C 1008.7 hPa NNW 11.3 km/h 24.1 km/h 90 % 0.76 mm
01:03 16.7 °C 15.1 °C 1008.4 hPa NW 8 km/h 24.1 km/h 90 % 0.76 mm
01:08 16.7 °C 15.1 °C 1008.7 hPa WNW 4.8 km/h 19.3 km/h 90 % 0.25 mm
01:13 16.7 °C 15.1 °C 1008.4 hPa NW 4.8 km/h 16.1 km/h 90 % 0.25 mm
01:18 16.7 °C 14.7 °C 1008.7 hPa West 3.2 km/h 16.1 km/h 88 % 0.25 mm
01:23 16.6 °C 14.4 °C 1008.7 hPa NW 12.9 km/h 16.1 km/h 87 % 0.25 mm
01:28 16.6 °C 14.2 °C 1008.4 hPa NW 4.8 km/h 16.1 km/h 86 % 0.25 mm
01:33 16.5 °C 14 °C 1008.4 hPa WNW 6.4 km/h 16.1 km/h 85 % 0 mm
01:39 16.5 °C 14 °C 1008.4 hPa NW 4.8 km/h 14.5 km/h 85 % 0 mm
01:44 16.5 °C 13.8 °C 1008.4 hPa North 4.8 km/h 16.1 km/h 84 % 0 mm
01:48 16.5 °C 13.8 °C 1008.4 hPa WNW 1.6 km/h 16.1 km/h 84 % 0 mm
01:53 16.5 °C 13.8 °C 1008 hPa NW 4.8 km/h 16.1 km/h 84 % 0 mm
01:54 16.5 °C 13.8 °C 1008 hPa NW 6.4 km/h 16.1 km/h 84 % 0 mm
01:59 16.5 °C 13.8 °C 1008 hPa WNW 3.2 km/h 16.1 km/h 84 % 0 mm
02:04 16.5 °C 13.6 °C 1008.4 hPa NW 1.6 km/h 16.1 km/h 83 % 0 mm
02:09 16.5 °C 13.6 °C 1008 hPa NNW 6.4 km/h 11.3 km/h 83 % 0 mm
02:14 16.6 °C 13.5 °C 1008.4 hPa SSW 4.8 km/h 12.9 km/h 82 % 0 mm
02:19 16.6 °C 13.5 °C 1008.7 hPa NW 8 km/h 12.9 km/h 82 % 0 mm
02:24 16.6 °C 13.5 °C 1008.4 hPa WNW 1.6 km/h 14.5 km/h 82 % 0 mm
02:29 16.7 °C 13.6 °C 1008.7 hPa WNW 6.4 km/h 14.5 km/h 82 % 0 mm
02:34 16.7 °C 13.6 °C 1008.7 hPa Calm   14.5 km/h 82 % 0 mm
02:39 16.7 °C 13.6 °C 1008.7 hPa West 6.4 km/h 11.3 km/h 82 % 0 mm
02:44 16.6 °C 13.5 °C 1008.7 hPa NW 4.8 km/h 11.3 km/h 82 % 0 mm
02:49 16.6 °C 13.5 °C 1008.7 hPa NW 9.7 km/h 11.3 km/h 82 % 0 mm
02:54 16.6 °C 13.3 °C 1008.7 hPa WNW 8 km/h 14.5 km/h 81 % 0 mm
02:59 16.6 °C 13.3 °C 1008.4 hPa WNW 4.8 km/h 17.7 km/h 81 % 0 mm
03:04 16.6 °C 13.3 °C 1008.7 hPa West 1.6 km/h 17.7 km/h 81 % 0 mm
03:09 16.6 °C 13.1 °C 1008.7 hPa NW 4.8 km/h 17.7 km/h 80 % 0 mm
03:14 16.6 °C 13.3 °C 1008.7 hPa WNW 6.4 km/h 17.7 km/h 81 % 0 mm
03:19 16.6 °C 13.3 °C 1008.4 hPa WNW 8 km/h 17.7 km/h 81 % 0 mm
03:24 16.6 °C 13.3 °C 1008.7 hPa WNW 3.2 km/h 14.5 km/h 81 % 0 mm
03:29 16.6 °C 13.3 °C 1008.4 hPa NNW 3.2 km/h 14.5 km/h 81 % 0 mm
03:34 16.6 °C 13.3 °C 1008 hPa NW 6.4 km/h 14.5 km/h 81 % 0 mm
03:39 16.6 °C 13.3 °C 1008 hPa WNW 1.6 km/h 9.7 km/h 81 % 0 mm
03:44 16.6 °C 13.5 °C 1008.4 hPa NE 3.2 km/h 9.7 km/h 82 % 0 mm
03:49 16.6 °C 13.3 °C 1008.7 hPa Calm   9.7 km/h 81 % 0 mm
03:54 16.6 °C 13.3 °C 1009.4 hPa SSW 1.6 km/h 9.7 km/h 81 % 0 mm
03:59 16.6 °C 13.3 °C 1009.4 hPa Calm   9.7 km/h 81 % 0 mm
04:04 16.6 °C 12.9 °C 1009.4 hPa WNW 4.8 km/h 9.7 km/h 79 % 0 mm
04:09 16.6 °C 12.7 °C 1009.4 hPa West 3.2 km/h 9.7 km/h 78 % 0 mm
04:14 16.7 °C 12.6 °C 1009 hPa NW 4.8 km/h 9.7 km/h 77 % 0 mm
04:19 16.7 °C 12.4 °C 1008.7 hPa NW 3.2 km/h 9.7 km/h 76 % 0 mm
04:24 16.7 °C 12.4 °C 1008 hPa NW 6.4 km/h 9.7 km/h 76 % 0 mm
04:29 16.7 °C 12.2 °C 1007.7 hPa West 1.6 km/h 9.7 km/h 75 % 0 mm
04:34 16.7 °C 12.2 °C 1007.7 hPa North 1.6 km/h 12.9 km/h 75 % 0 mm
04:39 16.7 °C 12.2 °C 1007.7 hPa WNW 3.2 km/h 12.9 km/h 75 % 0 mm
04:44 16.7 °C 12.2 °C 1007.7 hPa West 4.8 km/h 14.5 km/h 75 % 0 mm
04:49 16.6 °C 12.4 °C 1008 hPa WNW 4.8 km/h 14.5 km/h 76 % 0 mm
04:54 16.6 °C 12.4 °C 1008.4 hPa West 1.6 km/h 14.5 km/h 76 % 0 mm
04:59 16.6 °C 12.4 °C 1008.7 hPa WNW 1.6 km/h 11.3 km/h 76 % 0 mm
05:04 16.6 °C 12.6 °C 1009.4 hPa NW 4.8 km/h 11.3 km/h 77 % 0 mm
05:09 16.6 °C 12.6 °C 1008.7 hPa NW 4.8 km/h 12.9 km/h 77 % 0 mm
05:14 16.6 °C 12.4 °C 1008.4 hPa Calm   12.9 km/h 76 % 0 mm
05:19 16.5 °C 12.3 °C 1008.4 hPa NNW 3.2 km/h 12.9 km/h 76 % 0 mm
05:24 16.6 °C 12.4 °C 1008.7 hPa NW 3.2 km/h 12.9 km/h 76 % 0 mm
05:29 16.6 °C 12.6 °C 1008.4 hPa WNW 1.6 km/h 8 km/h 77 % 0 mm
05:34 16.6 °C 12.4 °C 1008.4 hPa NNW 3.2 km/h 8 km/h 76 % 0 mm
05:39 16.6 °C 12.4 °C 1008.7 hPa WNW 1.6 km/h 9.7 km/h 76 % 0 mm
05:44 16.5 °C 12.3 °C 1008.7 hPa South 1.6 km/h 9.7 km/h 76 % 0 mm
05:49 16.5 °C 12.3 °C 1009 hPa NNW 1.6 km/h 9.7 km/h 76 % 0 mm
05:54 16.5 °C 12.5 °C 1009.4 hPa WNW 4.8 km/h 9.7 km/h 77 % 0 mm
05:55 16.5 °C 12.5 °C 1009.4 hPa WNW 3.2 km/h 9.7 km/h 77 % 0 mm
06:00 16.6 °C 12.6 °C 1009 hPa West 8 km/h 9.7 km/h 77 % 0 mm
06:05 16.5 °C 12.3 °C 1009 hPa NW 8 km/h 11.3 km/h 76 % 0 mm
06:10 16.4 °C 12.2 °C 1008.7 hPa NW 6.4 km/h 22.5 km/h 76 % 0 mm
06:15 16.4 °C 12.2 °C 1008.4 hPa NNW 4.8 km/h 22.5 km/h 76 % 0 mm
06:20 16.3 °C 12.1 °C 1008.4 hPa NNW 1.6 km/h 22.5 km/h 76 % 0 mm
06:25 16.3 °C 12.1 °C 1008 hPa NNW 1.6 km/h 19.3 km/h 76 % 0 mm
06:30 16.3 °C 12.1 °C 1008.4 hPa NW 1.6 km/h 12.9 km/h 76 % 0 mm
06:35 16.3 °C 12.1 °C 1009.4 hPa NW 1.6 km/h 11.3 km/h 76 % 0 mm
06:40 16.3 °C 12.1 °C 1009.4 hPa Calm   6.4 km/h 76 % 0 mm
06:45 16.3 °C 11.9 °C 1009.7 hPa NW 4.8 km/h 6.4 km/h 75 % 0 mm
06:50 16.3 °C 12.1 °C 1010 hPa West 1.6 km/h 9.7 km/h 76 % 0 mm
06:55 16.3 °C 12.1 °C 1009.7 hPa NW 3.2 km/h 11.3 km/h 76 % 0 mm
06:56 16.3 °C 12.1 °C 1009.7 hPa NW 3.2 km/h 11.3 km/h 76 % 0 mm
07:01 16.3 °C 12.1 °C 1009.4 hPa Calm   11.3 km/h 76 % 0 mm
07:06 16.3 °C 12.1 °C 1009.4 hPa NW 1.6 km/h 8 km/h 76 % 0 mm
07:11 16.2 °C 11.8 °C 1009.4 hPa NW 3.2 km/h 9.7 km/h 75 % 0 mm
07:12 16.2 °C 11.6 °C 1009.4 hPa NW 1.6 km/h 9.7 km/h 74 % 0 mm
07:17 16.2 °C 11.6 °C 1009.7 hPa NW 8 km/h 9.7 km/h 74 % 0 mm
07:22 16.1 °C 11.5 °C 1010 hPa NW 4.8 km/h 11.3 km/h 74 % 0 mm
07:27 16.1 °C 11.5 °C 1010 hPa NW 3.2 km/h 11.3 km/h 74 % 0 mm
07:32 16.1 °C 11.5 °C 1010.4 hPa NW 1.6 km/h 11.3 km/h 74 % 0 mm
07:37 16.1 °C 11.5 °C 1010.7 hPa NW 4.8 km/h 11.3 km/h 74 % 0 mm
07:42 16.2 °C 11.8 °C 1010.7 hPa NNW 9.7 km/h 11.3 km/h 75 % 0 mm
07:47 16.1 °C 11.5 °C 1011.1 hPa NW 6.4 km/h 11.3 km/h 74 % 0 mm
07:52 16.1 °C 11.5 °C 1010.7 hPa Calm   14.5 km/h 74 % 0 mm
07:57 16.1 °C 11.5 °C 1010.7 hPa NNW 1.6 km/h 14.5 km/h 74 % 0 mm
08:02 16 °C 11.4 °C 1010.7 hPa NNW 6.4 km/h 17.7 km/h 74 % 0 mm
08:07 15.9 °C 11.3 °C 1010.7 hPa NNW 4.8 km/h 17.7 km/h 74 % 0 mm
08:12 15.9 °C 11.3 °C 1010.7 hPa WSW 3.2 km/h 17.7 km/h 74 % 0 mm
08:17 16.1 °C 11.7 °C 1010.7 hPa WNW 12.9 km/h 17.7 km/h 75 % 0 mm
08:22 16.2 °C 11.6 °C 1010.7 hPa NW 11.3 km/h 14.5 km/h 74 % 0 mm
08:27 16.3 °C 11.7 °C 1010.7 hPa NNE 8 km/h 17.7 km/h 74 % 0 mm
08:32 16.5 °C 11.8 °C 1010.7 hPa NNW 1.6 km/h 17.7 km/h 74 % 0 mm
08:37 16.7 °C 11.8 °C 1011.1 hPa NW 3.2 km/h 17.7 km/h 73 % 0 mm
08:42 17 °C 11.9 °C 1011.1 hPa NW 6.4 km/h 16.1 km/h 72 % 0 mm
08:47 16.9 °C 11.8 °C 1011.1 hPa North 8 km/h 16.1 km/h 72 % 0 mm
08:52 16.9 °C 11.8 °C 1010.7 hPa West 8 km/h 16.1 km/h 72 % 0 mm
08:57 16.7 °C 11.8 °C 1011.1 hPa NW 9.7 km/h 17.7 km/h 73 % 0 mm
09:02 16.7 °C 12 °C 1011.1 hPa WNW 8 km/h 17.7 km/h 74 % 0 mm
09:07 16.7 °C 11.6 °C 1011.4 hPa NW 8 km/h 17.7 km/h 72 % 0 mm
09:12 16.5 °C 11.6 °C 1011.7 hPa NE 4.8 km/h 19.3 km/h 73 % 0 mm
09:17 16.4 °C 11.3 °C 1011.7 hPa WNW 8 km/h 19.3 km/h 72 % 0 mm
09:22 16.4 °C 11.5 °C 1011.7 hPa SW 3.2 km/h 19.3 km/h 73 % 0 mm
09:27 16.3 °C 11.5 °C 1012.1 hPa NNW 1.6 km/h 14.5 km/h 73 % 0 mm
09:32 16.3 °C 11.7 °C 1012.1 hPa NW 6.4 km/h 14.5 km/h 74 % 0 mm
09:38 16.3 °C 11.9 °C 1012.4 hPa WSW 3.2 km/h 14.5 km/h 75 % 0 mm
09:43 16.2 °C 11.6 °C 1012.8 hPa NNW 11.3 km/h 14.5 km/h 74 % 0 mm
09:48 16.3 °C 11.9 °C 1012.4 hPa North 3.2 km/h 17.7 km/h 75 % 0 mm
09:53 16.3 °C 11.9 °C 1012.8 hPa Calm   17.7 km/h 75 % 0 mm
09:58 16.3 °C 12.1 °C 1012.8 hPa WSW 4.8 km/h 17.7 km/h 76 % 0 mm
10:03 16.3 °C 11.9 °C 1012.8 hPa NW 12.9 km/h 14.5 km/h 75 % 0 mm
10:08 16.2 °C 11.6 °C 1012.8 hPa WNW 1.6 km/h 20.9 km/h 74 % 0 mm
10:13 16.2 °C 11.4 °C 1012.8 hPa NW 6.4 km/h 20.9 km/h 73 % 0 mm
10:18 16.1 °C 11.5 °C 1012.8 hPa WNW 9.7 km/h 20.9 km/h 74 % 0 mm
10:23 16.1 °C 11.3 °C 1012.8 hPa NW 8 km/h 17.7 km/h 73 % 0 mm
10:28 16.1 °C 11.1 °C 1013.1 hPa NW 4.8 km/h 14.5 km/h 72 % 0 mm
10:33 16.1 °C 11.1 °C 1013.1 hPa NW 6.4 km/h 14.5 km/h 72 % 0 mm
10:38 15.9 °C 9.8 °C 1013.4 hPa West 1.6 km/h 14.5 km/h 67 % 0 mm
10:41 15.9 °C 9.6 °C 1013.4 hPa NW 6.4 km/h 14.5 km/h 66 % 0 mm
10:46 15.7 °C 6.4 °C 1013.4 hPa NW 11.3 km/h 20.9 km/h 54 % 0 mm
10:51 15.6 °C 6.3 °C 1013.4 hPa NNW 9.7 km/h 29 km/h 54 % 0 mm
10:56 15.5 °C 6 °C 1013.4 hPa NNW 8 km/h 29 km/h 53 % 0 mm
11:02 15.5 °C 6 °C 1013.8 hPa NW 6.4 km/h 29 km/h 53 % 0 mm
11:07 15.6 °C 6.3 °C 1013.8 hPa NNE 3.2 km/h 24.1 km/h 54 % 0 mm
11:12 15.7 °C 6.7 °C 1013.8 hPa NNW 12.9 km/h 20.9 km/h 55 % 0 mm
11:17 15.8 °C 6.5 °C 1013.8 hPa NNW 9.7 km/h 20.9 km/h 54 % 0 mm
11:22 16 °C 7 °C 1013.4 hPa SW 8 km/h 24.1 km/h 55 % 0 mm
11:27 16.2 °C 7.4 °C 1013.4 hPa NW 17.7 km/h 24.1 km/h 56 % 0 mm
11:32 16.3 °C 7.5 °C 1013.8 hPa NNE 8 km/h 24.1 km/h 56 % 0 mm
11:37 16.2 °C 7.7 °C 1013.8 hPa NW 6.4 km/h 20.9 km/h 57 % 0 mm
11:42 16.5 °C 8.5 °C 1013.8 hPa WSW 1.6 km/h 20.9 km/h 59 % 0 mm
11:47 16.8 °C 8.7 °C 1013.8 hPa NNW 1.6 km/h 19.3 km/h 59 % 0 mm
11:52 17 °C 8.9 °C 1013.8 hPa NW 4.8 km/h 14.5 km/h 59 % 0 mm
11:57 16.9 °C 8.6 °C 1013.8 hPa WSW 4.8 km/h 12.9 km/h 58 % 0 mm
12:02 16.8 °C 9 °C 1013.8 hPa West 6.4 km/h 12.9 km/h 60 % 0 mm
12:07 17.2 °C 9.6 °C 1013.4 hPa NW 4.8 km/h 12.9 km/h 61 % 0 mm
12:12 17.8 °C 9.9 °C 1013.4 hPa NW 3.2 km/h 11.3 km/h 60 % 0 mm
12:17 18.1 °C 10.5 °C 1013.4 hPa NW 1.6 km/h 12.9 km/h 61 % 0 mm
12:22 18.3 °C 9.6 °C 1013.4 hPa NW 9.7 km/h 12.9 km/h 57 % 0 mm
12:27 18.8 °C 9.8 °C 1013.4 hPa WNW 1.6 km/h 16.1 km/h 56 % 0 mm
12:32 19.1 °C 9.8 °C 1013.1 hPa WSW 4.8 km/h 22.5 km/h 55 % 0 mm
12:37 19.3 °C 10.3 °C 1013.4 hPa West 8 km/h 22.5 km/h 56 % 0 mm
12:42 20 °C 10.1 °C 1013.4 hPa SSW 1.6 km/h 22.5 km/h 53 % 0 mm
12:47 20.2 °C 9.4 °C 1013.4 hPa NW 17.7 km/h 17.7 km/h 50 % 0 mm
12:52 19.7 °C 8.7 °C 1013.4 hPa WNW 3.2 km/h 22.5 km/h 49 % 0 mm
12:57 19.5 °C 8.8 °C 1013.4 hPa WNW 3.2 km/h 22.5 km/h 50 % 0 mm
13:02 19.3 °C 8.3 °C 1013.1 hPa SSW 3.2 km/h 22.5 km/h 49 % 0 mm
13:07 19.6 °C 8.6 °C 1013.4 hPa SSE 1.6 km/h 22.5 km/h 49 % 0 mm
13:12 19.6 °C 8.9 °C 1013.1 hPa NW 1.6 km/h 17.7 km/h 50 % 0 mm
13:17 20 °C 9 °C 1013.1 hPa North 11.3 km/h 17.7 km/h 49 % 0 mm
13:22 20.3 °C 8.9 °C 1013.1 hPa WSW 6.4 km/h 17.7 km/h 48 % 0 mm
13:27 20.3 °C 7.3 °C 1013.1 hPa WNW 9.7 km/h 17.7 km/h 43 % 0 mm
13:32 20.1 °C 8.4 °C 1013.1 hPa NNW 14.5 km/h 19.3 km/h 47 % 0 mm
13:37 20 °C 8.7 °C 1013.1 hPa NW 4.8 km/h 19.3 km/h 48 % 0 mm
13:42 20 °C 9.3 °C 1013.1 hPa Calm   19.3 km/h 50 % 0 mm
13:47 20.2 °C 8.5 °C 1013.1 hPa North 14.5 km/h 17.7 km/h 47 % 0 mm
13:52 20.2 °C 9.1 °C 1013.1 hPa Calm   17.7 km/h 49 % 0 mm
13:57 20.4 °C 8.1 °C 1012.8 hPa NW 12.9 km/h 17.7 km/h 45 % 0 mm
14:02 20 °C 8.3 °C 1012.8 hPa NW 9.7 km/h 20.9 km/h 47 % 0 mm
14:07 19.9 °C 8.3 °C 1012.8 hPa NW 6.4 km/h 20.9 km/h 47 % 0 mm
14:12 19.8 °C 8.5 °C 1012.8 hPa NNW 14.5 km/h 24.1 km/h 48 % 0 mm
14:17 20.2 °C 9.1 °C 1012.8 hPa WNW 8 km/h 24.1 km/h 49 % 0 mm
14:22 20.7 °C 9 °C 1012.8 hPa NW 4.8 km/h 24.1 km/h 47 % 0 mm
14:27 20.8 °C 8.8 °C 1012.8 hPa NNW 4.8 km/h 24.1 km/h 46 % 0 mm
14:32 20.7 °C 9 °C 1012.8 hPa NW 6.4 km/h 16.1 km/h 47 % 0 mm
14:37 21.1 °C 9.3 °C 1012.8 hPa Calm   16.1 km/h 47 % 0 mm
14:42 21.3 °C 8.6 °C 1012.8 hPa WNW 8 km/h 12.9 km/h 44 % 0 mm
14:47 21 °C 8.6 °C 1012.4 hPa ENE 1.6 km/h 24.1 km/h 45 % 0 mm
14:52 21 °C 8.3 °C 1012.4 hPa NNW 3.2 km/h 24.1 km/h 44 % 0 mm
14:57 21.1 °C 8.7 °C 1012.4 hPa SW 3.2 km/h 24.1 km/h 45 % 0 mm
15:02 21.7 °C 9.2 °C 1012.4 hPa WNW 1.6 km/h 19.3 km/h 45 % 0 mm
15:07 22 °C 9.2 °C 1012.4 hPa North 6.4 km/h 17.7 km/h 44 % 0 mm
15:12 21.8 °C 9 °C 1012.4 hPa North 4.8 km/h 14.5 km/h 44 % 0 mm
15:17 21.7 °C 9.2 °C 1012.1 hPa WNW 12.9 km/h 22.5 km/h 45 % 0 mm
15:22 21.6 °C 9.2 °C 1012.1 hPa WNW 8 km/h 22.5 km/h 45 % 0 mm
15:27 21.8 °C 9 °C 1012.1 hPa NW 6.4 km/h 22.5 km/h 44 % 0 mm
15:32 21.9 °C 9.1 °C 1012.1 hPa SW 1.6 km/h 14.5 km/h 44 % 0 mm
15:37 22.1 °C 9.6 °C 1011.7 hPa NNW 4.8 km/h 20.9 km/h 45 % 0 mm
15:42 22.3 °C 9.8 °C 1011.7 hPa Calm   20.9 km/h 45 % 0 mm
15:47 22.4 °C 9.9 °C 1011.7 hPa NW 1.6 km/h 20.9 km/h 45 % 0 mm
15:52 22.8 °C 9.9 °C 1011.7 hPa WSW 3.2 km/h 16.1 km/h 44 % 0 mm
15:57 23 °C 9.7 °C 1011.7 hPa North 6.4 km/h 16.1 km/h 43 % 0 mm
16:02 22.7 °C 9.5 °C 1011.7 hPa West 11.3 km/h 20.9 km/h 43 % 0 mm
16:07 23.1 °C 8.8 °C 1011.4 hPa Calm   20.9 km/h 40 % 0 mm
16:09 23.2 °C 9.6 °C 1011.4 hPa WNW 3.2 km/h 20.9 km/h 42 % 0 mm
16:14 23.6 °C 9.2 °C 1011.4 hPa ENE 1.6 km/h 20.9 km/h 40 % 0 mm
16:19 23.7 °C 8.1 °C 1011.4 hPa West 4.8 km/h 11.3 km/h 37 % 0 mm
16:24 23.5 °C 7.2 °C 1011.4 hPa NW 8 km/h 11.3 km/h 35 % 0 mm
16:29 23.4 °C 7.9 °C 1011.4 hPa WNW 1.6 km/h 16.1 km/h 37 % 0 mm
16:34 23.7 °C 8.5 °C 1011.4 hPa NW 8 km/h 16.1 km/h 38 % 0 mm
16:39 23.7 °C 7.3 °C 1011.4 hPa WSW 3.2 km/h 16.1 km/h 35 % 0 mm
16:44 23.9 °C 7.5 °C 1011.4 hPa West 11.3 km/h 14.5 km/h 35 % 0 mm
16:49 23.8 °C 7.4 °C 1011.4 hPa WSW 1.6 km/h 14.5 km/h 35 % 0 mm
16:54 23.8 °C 6.6 °C 1011.4 hPa NNW 12.9 km/h 14.5 km/h 33 % 0 mm
16:59 23.6 °C 6.4 °C 1011.4 hPa West 3.2 km/h 17.7 km/h 33 % 0 mm
17:04 23.8 °C 7.4 °C 1011.4 hPa NW 8 km/h 20.9 km/h 35 % 0 mm
17:09 24.1 °C 6.4 °C 1011.4 hPa WNW 1.6 km/h 20.9 km/h 32 % 0 mm
17:14 24.1 °C 7.3 °C 1011.4 hPa West 4.8 km/h 20.9 km/h 34 % 0 mm
17:19 24.1 °C 6.8 °C 1011.4 hPa West 6.4 km/h 16.1 km/h 33 % 0 mm
17:24 23.9 °C 7.1 °C 1011.4 hPa Calm   14.5 km/h 34 % 0 mm
17:29 24 °C 7.2 °C 1011.4 hPa NNW 1.6 km/h 14.5 km/h 34 % 0 mm
17:35 23.7 °C 6.5 °C 1011.4 hPa NW 4.8 km/h 17.7 km/h 33 % 0 mm
17:40 23.6 °C 6.8 °C 1011.4 hPa WNW 9.7 km/h 17.7 km/h 34 % 0 mm
17:45 23.7 °C 6.5 °C 1011.4 hPa West 8 km/h 17.7 km/h 33 % 0 mm
17:50 23.8 °C 7.8 °C 1011.7 hPa SSW 3.2 km/h 17.7 km/h 36 % 0 mm
17:55 23.7 °C 6.9 °C 1011.7 hPa West 3.2 km/h 17.7 km/h 34 % 0 mm
18:00 23.8 °C 7.4 °C 1011.7 hPa SW 1.6 km/h 12.9 km/h 35 % 0 mm
18:05 23.9 °C 7.1 °C 1011.7 hPa WSW 1.6 km/h 12.9 km/h 34 % 0 mm
18:10 23.9 °C 7.1 °C 1011.7 hPa SE 1.6 km/h 11.3 km/h 34 % 0 mm
18:15 23.8 °C 7 °C 1011.4 hPa South 1.6 km/h 12.9 km/h 34 % 0 mm
18:20 23.8 °C 7.4 °C 1011.7 hPa SW 3.2 km/h 12.9 km/h 35 % 0 mm
18:25 23.8 °C 7.4 °C 1011.7 hPa WNW 3.2 km/h 12.9 km/h 35 % 0 mm
18:30 23.7 °C 6.9 °C 1011.7 hPa WNW 3.2 km/h 12.9 km/h 34 % 0 mm
18:35 23.6 °C 6.8 °C 1011.7 hPa NW 3.2 km/h 11.3 km/h 34 % 0 mm
18:40 23.6 °C 7.2 °C 1011.7 hPa WSW 3.2 km/h 16.1 km/h 35 % 0 mm
18:45 23.6 °C 7.2 °C 1011.7 hPa WSW 1.6 km/h 16.1 km/h 35 % 0 mm
18:50 23.6 °C 7.2 °C 1011.7 hPa West 6.4 km/h 16.1 km/h 35 % 0 mm
18:55 23.4 °C 7.1 °C 1011.7 hPa Calm   11.3 km/h 35 % 0 mm
19:00 23.4 °C 7.1 °C 1011.7 hPa WNW 3.2 km/h 11.3 km/h 35 % 0 mm
19:05 23.3 °C 7 °C 1011.7 hPa Calm   11.3 km/h 35 % 0 mm
19:10 23.2 °C 6.9 °C 1011.7 hPa West 3.2 km/h 12.9 km/h 35 % 0 mm
19:15 22.8 °C 7.3 °C 1011.7 hPa Calm   12.9 km/h 37 % 0 mm
19:20 22.4 °C 7 °C 1012.1 hPa Calm   12.9 km/h 37 % 0 mm
19:25 22.2 °C 7.2 °C 1012.1 hPa Calm   9.7 km/h 38 % 0 mm
19:30 21.9 °C 6.9 °C 1012.1 hPa Calm   8 km/h 38 % 0 mm
19:35 21.7 °C 7.1 °C 1012.1 hPa Calm   8 km/h 39 % 0 mm
19:40 21.4 °C 7.6 °C 1011.7 hPa Calm   8 km/h 41 % 0 mm
19:45 21.2 °C 7.4 °C 1011.7 hPa Calm   4.8 km/h 41 % 0 mm
19:50 20.8 °C 7.1 °C 1011.7 hPa Calm   3.2 km/h 41 % 0 mm
19:55 20.4 °C 7.1 °C 1012.1 hPa Calm   1.6 km/h 42 % 0 mm
20:00 20.2 °C 8.2 °C 1012.1 hPa Calm   1.6 km/h 46 % 0 mm
20:05 19.8 °C 8.5 °C 1012.1 hPa WSW 1.6 km/h 1.6 km/h 48 % 0 mm
20:10 19.5 °C 8.8 °C 1012.1 hPa Calm   1.6 km/h 50 % 0 mm
20:15 19.2 °C 8.5 °C 1012.4 hPa Calm   1.6 km/h 50 % 0 mm
20:20 18.9 °C 8.2 °C 1012.4 hPa Calm   1.6 km/h 50 % 0 mm
20:25 18.7 °C 8.6 °C 1012.4 hPa Calm   1.6 km/h 52 % 0 mm
20:30 18.4 °C 8.4 °C 1012.4 hPa Calm   1.6 km/h 52 % 0 mm
20:35 18.1 °C 8.6 °C 1012.8 hPa Calm     54 % 0 mm
20:40 17.9 °C 8.7 °C 1012.8 hPa Calm     55 % 0 mm
20:45 17.8 °C 8.6 °C 1012.8 hPa Calm     55 % 0 mm
20:50 17.7 °C 8.8 °C 1012.8 hPa Calm     56 % 0 mm
20:55 17.5 °C 8.4 °C 1012.8 hPa Calm     55 % 0 mm
21:00 17.4 °C 8.5 °C 1012.8 hPa Calm     56 % 0 mm
21:05 17.2 °C 8.9 °C 1013.1 hPa Calm     58 % 0 mm
21:10 16.9 °C 8.8 °C 1013.1 hPa Calm     59 % 0 mm
21:15 16.8 °C 9 °C 1013.1 hPa Calm     60 % 0 mm
21:21 16.7 °C 8.6 °C 1013.1 hPa Calm     59 % 0 mm
21:26 16.5 °C 8.7 °C 1013.1 hPa Calm     60 % 0 mm
21:31 16.3 °C 8.5 °C 1013.1 hPa Calm     60 % 0 mm
21:36 15.9 °C 8.1 °C 1013.1 hPa Calm     60 % 0 mm
21:41 15.7 °C 8.4 °C 1013.4 hPa Calm     62 % 0 mm
21:46 15.7 °C 8.9 °C 1013.4 hPa Calm     64 % 0 mm
21:51 15.7 °C 9.4 °C 1013.4 hPa Calm     66 % 0 mm
21:56 15.7 °C 9.4 °C 1013.4 hPa Calm     66 % 0 mm
22:01 15.6 °C 9.3 °C 1013.4 hPa Calm     66 % 0 mm
22:06 15.4 °C 9.3 °C 1013.4 hPa Calm     67 % 0 mm
22:11 15.3 °C 9.4 °C 1013.8 hPa Calm     68 % 0 mm
22:16 15.4 °C 9.7 °C 1013.8 hPa Calm   1.6 km/h 69 % 0 mm
22:21 15.4 °C 10 °C 1013.8 hPa Calm   1.6 km/h 70 % 0 mm
22:26 15.3 °C 9.6 °C 1013.8 hPa Calm   1.6 km/h 69 % 0 mm
22:31 15 °C 9.4 °C 1013.8 hPa Calm     69 % 0 mm
22:36 14.7 °C 9.1 °C 1013.8 hPa Calm     69 % 0 mm
22:41 14.5 °C 9.1 °C 1013.8 hPa Calm     70 % 0 mm
22:46 14.4 °C 9.4 °C 1014.1 hPa Calm     72 % 0 mm
22:51 14.5 °C 9.5 °C 1013.8 hPa Calm     72 % 0 mm
22:56 14.6 °C 9.6 °C 1014.1 hPa Calm     72 % 0 mm
23:01 14.5 °C 9.3 °C 1014.1 hPa Calm     71 % 0 mm
23:06 14.4 °C 9.4 °C 1014.1 hPa Calm     72 % 0 mm
23:11 14.4 °C 9.6 °C 1014.1 hPa Calm     73 % 0 mm
23:16 14.4 °C 9.6 °C 1014.1 hPa Calm     73 % 0 mm
23:21 14.5 °C 9.7 °C 1014.1 hPa Calm     73 % 0 mm
23:26 14.3 °C 9.3 °C 1014.1 hPa Calm     72 % 0 mm
23:31 14.3 °C 9.9 °C 1014.1 hPa Calm     75 % 0 mm
23:36 14.1 °C 9.5 °C 1014.1 hPa Calm     74 % 0 mm
23:41 13.9 °C 9.3 °C 1014.1 hPa Calm     74 % 0 mm
23:46 13.7 °C 9.3 °C 1014.1 hPa Calm     75 % 0 mm
23:51 13.5 °C 9.4 °C 1014.1 hPa Calm     76 % 0 mm
23:56 13.6 °C 9.6 °C 1014.1 hPa Calm     77 % 0 mm
Spring, Texas: Villages of Bridgestone
Compliments of Weather Underground - 2.75 mb

Script developed by  Jim McMurry - jmcmurry@mwt.net Adapted for the template by  Wim van der Kuil - Leuven-Template.eu

You find our weather info also at:

UK Metoffice

WeatherCloud

Weather Underground

Mid-South Weather Network

AWEKAS

Citizen Weather Observer Program (CWOP)

HAMweather, WeatherForYou, PWS Weather

Equipment we use:

Weather-station
Davis Vantage Vue

Weather-program
Meteohub

Weather-server
Debian 7.9 x86 (Guest)

Provider
DreamHost

Davis Vantage Vue

Meteohub

Debian 7.9 x86 (Guest)

DreamHost